Regional Weather Roundup
Issued by NWS Little Rock, AR

Home | Current Version | Previous Version | Text Only | Print | Product List | Glossary Off
Versions: 1 2 3 4 5 6 7 8 9 10 11 12 13 14 15 16 17 18 19 20 21 22 23 24 25 26 27 28 29 30 31 32 33 34 35 36 37 38 39 40 41 42 43 44 45 46 47 48 49 50

000
ASUS44 KLZK 260405
RWRLZK

WEATHER ROUNDUP FOR ARKANSAS
NATIONAL WEATHER SERVICE LITTLE ROCK AR
1100 PM CDT MON JUL 25 2016

NOTE: "FAIR" INDICATES FEW OR NO CLOUDS BELOW 12,000 FEET WITH NO
SIGNIFICANT WEATHER AND/OR OBSTRUCTIONS TO VISIBILITY.

ARZ001-003-010-029-260500-
NORTHWEST ARKANSAS

CITY           SKY/WX    TMP DP  RH WIND       PRES   REMARKS
FAYETTEVILLE   CLEAR     76  73  91 CALM      30.03S
FORT SMITH     CLEAR     81  73  76 SE3       29.96S HX  86
HARRISON       PTCLDY    76  73  91 NE5       30.06R
BENTONVILLE    CLEAR     77  70  78 E6        30.04F
ROGERS         PTCLDY    76  73  91 E7        30.05S
SILOAM SPGS    PTCLDY    75  66  73 E3        30.04S
HIGHFILL       CLOUDY    77  74  90 E3        30.03S
$$

ARZ004-005-016-260500-
NORTH CENTRAL ARKANSAS

CITY           SKY/WX    TMP DP  RH WIND       PRES   REMARKS
BATESVILLE     CLOUDY    77  72  83 CALM      30.00F
FLIPPIN        CLOUDY    77  68  73 CALM      30.00S
MTN HOME       RAIN      73  72  96 CALM      30.03S FOG
$$

ARZ040-041-260500-
WEST CENTRAL ARKANSAS

CITY           SKY/WX    TMP DP  RH WIND       PRES   REMARKS
MENA           CLEAR     77  75  94 CALM      29.99F
MOUNT IDA      MOCLDY    77  77 100 CALM      29.96F FOG
$$

ARZ009-017-025-026-028-260500-
NORTHEAST ARKANSAS

CITY           SKY/WX    TMP DP  RH WIND       PRES   REMARKS
CORNING          N/A     79  79 100 N6        30.00S
JONESBORO      CLEAR     80  77  90 E3        29.99R HX  87
NEWPORT        CLEAR     79  79 100 NE3       30.00R
WALNUT RIDGE   CLOUDY    79  75  89 NE5       29.98S
BLYTHEVILLE    CLEAR     81  78  91 CALM      29.99R HX  89
$$

ARZ022-023-033-042-044-260500-
CENTRAL ARKANSAS

CITY           SKY/WX    TMP DP  RH WIND       PRES   REMARKS
LITTLE ROCK    PTCLDY    85  76  74 SE5       29.97R HX  94
N LITTLE ROCK    N/A     82  76  80 CALM      29.95R HX  89
JACKSONVILLE   CLEAR     81  77  85 E1        29.97R HX  88
SEARCY         CLEAR     80  78  94 CALM      29.99R HX  88
HOT SPRINGS    CLOUDY    80  77  90 CALM      29.98S HX  87
RUSSELLVILLE   RAIN      77  74  90 NE21G28   29.99R
$$

ARZ036-260500-
EAST ARKANSAS

CITY           SKY/WX    TMP DP  RH WIND       PRES   REMARKS
WEST MEMPHIS   CLEAR     79  76  90 CALM      29.97R
$$

ARZ050-053-066-070-073-260500-
SOUTHWEST ARKANSAS

CITY           SKY/WX    TMP DP  RH WIND       PRES   REMARKS
CAMDEN         CLEAR     77  73  88 CALM      29.95F
TEXARKANA      PTCLDY    80  74  81 E5        29.94F HX  85
EL DORADO      CLEAR     80  76  87 CALM      29.95F HX  86
DE QUEEN       CLOUDY    78  77  96 E3        29.92F
$$

ARZ056-057-069-260500-
SOUTHEAST ARKANSAS

CITY           SKY/WX    TMP DP  RH WIND       PRES   REMARKS
PINE BLUFF     CLEAR     80  77  90 CALM      29.97R HX  87
STUTTGART      CLEAR     82  72  69 CALM      29.97S HX  87
MONTICELLO     CLEAR     81  77  88 CALM      29.95F HX  88

$$





USA.gov is the U.S. government's official web portal to all federal, state and local government web resources and services.